TimeCST,TemperatureF,Dew PointF,Humidity,Sea Level PressureIn,VisibilityMPH,Wind Direction,Wind SpeedMPH,Gust SpeedMPH,PrecipitationIn,Events,Conditions,WindDirDegrees,DateUTC
12:52 AM,21.0,17.1,85,30.46,10.0,Calm,Calm,-,N/A,,Clear,0,2012-11-24 06:52:00
1:52 AM,21.9,18.0,85,30.45,10.0,Calm,Calm,-,N/A,,Clear,0,2012-11-24 07:52:00
2:52 AM,19.9,17.1,89,30.43,10.0,Calm,Calm,-,N/A,,Clear,0,2012-11-24 08:52:00
3:52 AM,21.0,17.1,85,30.43,10.0,Calm,Calm,-,N/A,,Clear,0,2012-11-24 09:52:00
4:52 AM,21.0,17.1,85,30.42,10.0,Calm,Calm,-,N/A,,Clear,0,2012-11-24 10:52:00
5:52 AM,19.0,16.0,88,30.42,10.0,Calm,Calm,-,N/A,,Clear,0,2012-11-24 11:52:00
6:52 AM,19.0,16.0,88,30.41,10.0,Calm,Calm,-,N/A,,Clear,0,2012-11-24 12:52:00
7:52 AM,21.0,18.0,88,30.41,10.0,Calm,Calm,-,N/A,,Clear,0,2012-11-24 13:52:00
8:52 AM,32.0,23.0,69,30.40,10.0,Calm,Calm,-,N/A,,Clear,0,2012-11-24 14:52:00
9:52 AM,37.0,19.9,50,30.38,10.0,South,6.9,-,N/A,,Clear,190,2012-11-24 15:52:00
10:52 AM,41.0,18.0,40,30.35,10.0,South,9.2,-,N/A,,Clear,170,2012-11-24 16:52:00
11:52 AM,44.1,19.0,37,30.28,10.0,South,10.4,17.3,N/A,,Clear,170,2012-11-24 17:52:00
12:52 PM,46.9,21.0,36,30.23,10.0,South,9.2,-,N/A,,Clear,180,2012-11-24 18:52:00
1:52 PM,48.9,19.9,32,30.18,10.0,South,12.7,17.3,N/A,,Clear,180,2012-11-24 19:52:00
2:52 PM,50.0,21.0,32,30.13,10.0,SSE,9.2,18.4,N/A,,Clear,160,2012-11-24 20:52:00
3:52 PM,51.1,21.9,32,30.08,10.0,South,10.4,20.7,N/A,,Clear,170,2012-11-24 21:52:00
4:52 PM,48.9,19.9,32,30.07,10.0,South,12.7,19.6,N/A,,Clear,190,2012-11-24 22:52:00
5:52 PM,44.1,21.9,42,30.06,10.0,South,3.5,-,N/A,,Clear,170,2012-11-24 23:52:00
6:52 PM,44.1,23.0,43,30.06,10.0,South,6.9,-,N/A,,Clear,170,2012-11-25 00:52:00
7:52 PM,43.0,23.0,45,30.04,10.0,South,8.1,-,N/A,,Clear,170,2012-11-25 01:52:00
8:52 PM,42.1,23.0,47,30.02,10.0,South,9.2,-,N/A,,Clear,190,2012-11-25 02:52:00
9:52 PM,42.1,24.1,49,30.00,10.0,South,10.4,-,N/A,,Clear,190,2012-11-25 03:52:00
10:52 PM,41.0,25.0,53,30.01,10.0,South,8.1,-,N/A,,Clear,190,2012-11-25 04:52:00
11:52 PM,41.0,24.1,51,29.99,10.0,South,9.2,-,N/A,,Clear,180,2012-11-25 05:52:00